| time (UTC) | temp C | wind direction | speed KPH | gust KPH | rain 1hr cm | rain 24hr cm | rain mn cm | humidity % | barometer mb |
| 20260503030018 | 11 | 350 | 0.0 | 0.0 | 0.00 | 0.00 | 0.00 | 76 | 1013.5 |
| 20260503024515 | 12 | 350 | 0.0 | 0.0 | 0.00 | 0.00 | 0.00 | 73 | 1013.3 |
| 20260503023014 | 12 | 350 | 0.0 | 0.0 | 0.00 | 0.00 | 0.00 | 70 | 1013.2 |
| 20260503021514 | 13 | 350 | 0.0 | 0.0 | 0.00 | 0.00 | 0.00 | 68 | 1013.2 |
| 20260503020014 | 14 | 350 | 0.0 | 0.0 | 0.00 | 0.00 | 0.00 | 62 | 1013.1 |
| 20260503014516 | 15 | 349 | 0.0 | 1.6 | 0.00 | 0.00 | 0.00 | 59 | 1012.9 |
| 20260503013112 | 16 | 354 | 0.0 | 1.6 | 0.00 | 0.00 | 0.00 | 54 | 1012.8 |
| 20260503011511 | 17 | 353 | 0.0 | 1.6 | 0.00 | 0.00 | 0.00 | 48 | 1012.8 |
| 20260503010011 | 18 | 9 | 0.0 | 1.6 | 0.00 | 0.00 | 0.00 | 39 | 1012.7 |
| 20260503004510 | 19 | 103 | 0.0 | 4.8 | 0.00 | 0.00 | 0.00 | 31 | 1012.8 |
| 20260503003011 | 20 | 42 | 0.0 | 1.6 | 0.00 | 0.00 | 0.00 | 29 | 1012.8 |
| 20260503001510 | 20 | 359 | 1.6 | 6.4 | 0.00 | 0.00 | 0.00 | 28 | 1012.7 |
| 20260503000009 | 21 | 141 | 0.0 | 11.3 | 0.00 | 0.00 | 0.00 | 26 | 1012.7 |
| 20260502234509 | 21 | 342 | 1.6 | 14.5 | 0.00 | 0.00 | 0.00 | 27 | 1012.7 |
| 20260502233008 | 22 | 357 | 0.0 | 6.4 | 0.00 | 0.00 | 0.00 | 27 | 1012.7 |
| 20260502231515 | 21 | 324 | 3.2 | 11.3 | 0.00 | 0.00 | 0.00 | 26 | 1012.8 |
| 20260502230006 | 22 | 260 | 4.8 | 11.3 | 0.00 | 0.00 | 0.00 | 25 | 1012.8 |
| 20260502224505 | 22 | 290 | 3.2 | 9.7 | 0.00 | 0.00 | 0.00 | 25 | 1012.8 |
| 20260502223003 | 21 | 139 | 0.0 | 8.0 | 0.00 | 0.00 | 0.00 | 24 | 1013.0 |
| 20260502221502 | 22 | 55 | 3.2 | 9.7 | 0.00 | 0.00 | 0.00 | 24 | 1013.0 |
| 20260502220059 | 22 | 156 | 1.6 | 11.3 | 0.00 | 0.00 | 0.00 | 25 | 1013.2 |
| 20260502214557 | 21 | 248 | 1.6 | 6.4 | 0.00 | 0.00 | 0.00 | 23 | 1013.4 |
| 20260502213056 | 21 | 50 | 0.0 | 8.0 | 0.00 | 0.00 | 0.00 | 23 | 1013.6 |
| 20260502211559 | 22 | 244 | 3.2 | 6.4 | 0.00 | 0.00 | 0.00 | 24 | 1013.6 |
| 20260502210054 | 22 | 96 | 0.0 | 8.0 | 0.00 | 0.00 | 0.00 | 25 | 1013.8 |
| 20260502204552 | 22 | 129 | 0.0 | 6.4 | 0.00 | 0.00 | 0.00 | 24 | 1013.9 |
| 20260502203049 | 21 | 340 | 0.0 | 11.3 | 0.00 | 0.00 | 0.00 | 27 | 1014.1 |
| 20260502201546 | 21 | 65 | 0.0 | 4.8 | 0.00 | 0.00 | 0.00 | 25 | 1014.2 |
| 20260502200044 | 21 | 295 | 0.0 | 4.8 | 0.00 | 0.00 | 0.00 | 24 | 1014.5 |
| 20260502194541 | 21 | 321 | 3.2 | 8.0 | 0.00 | 0.00 | 0.00 | 25 | 1014.7 |
| 20260502193045 | 20 | 243 | 0.0 | 9.7 | 0.00 | 0.00 | 0.00 | 26 | 1014.8 |
| 20260502191540 | 20 | 68 | 1.6 | 6.4 | 0.00 | 0.00 | 0.00 | 27 | 1015.0 |
| 20260502190034 | 20 | 56 | 1.6 | 8.0 | 0.00 | 0.00 | 0.00 | 29 | 1015.1 |
| 20260502184530 | 20 | 231 | 1.6 | 12.9 | 0.00 | 0.00 | 0.00 | 28 | 1015.3 |
| 20260502183027 | 19 | 279 | 0.0 | 6.4 | 0.00 | 0.00 | 0.00 | 30 | 1015.5 |
| 20260502181524 | 19 | 318 | 1.6 | 6.4 | 0.00 | 0.00 | 0.00 | 30 | 1015.6 |
| 20260502163058 | 11 | 75 | 0.0 | 3.2 | 0.00 | 0.00 | 0.00 | 66 | 1016.9 |
| 20260502161619 | 9 | 131 | 0.0 | 1.6 | 0.00 | 0.00 | 0.00 | 75 | 1017.1 |
| 20260502160110 | 7 | 312 | 0.0 | 0.0 | 0.00 | 0.00 | 0.00 | 84 | 1017.4 |
| 20260502151535 | 3 | 313 | 0.0 | 0.0 | 0.00 | 0.00 | 0.00 | 91 | 1018.2 |
| 20260502123018 | -1 | 313 | 0.0 | 0.0 | 0.00 | 0.00 | 0.00 | 92 | 1018.7 |
| 20260502121513 | -1 | 313 | 0.0 | 0.0 | 0.00 | 0.00 | 0.00 | 92 | 1018.6 |
| 20260502114508 | -1 | 313 | 0.0 | 0.0 | 0.00 | 0.00 | 0.00 | 92 | 1018.8 |
| 20260502113007 | -1 | 313 | 0.0 | 0.0 | 0.00 | 0.00 | 0.00 | 92 | 1018.8 |
| 20260502111505 | -1 | 313 | 0.0 | 0.0 | 0.00 | 0.00 | 0.00 | 92 | 1018.8 |
| 20260502110002 | -1 | 313 | 0.0 | 0.0 | 0.00 | 0.00 | 0.00 | 92 | 1018.9 |
| 20260502104600 | -1 | 313 | 0.0 | 0.0 | 0.00 | 0.00 | 0.00 | 92 | 1018.9 |
| 20260502103058 | -1 | 313 | 0.0 | 0.0 | 0.00 | 0.00 | 0.00 | 92 | 1018.9 |
| 20260502101604 | 0 | 313 | 0.0 | 0.0 | 0.00 | 0.00 | 0.00 | 92 | 1018.9 |
| 20260502071532 | 1 | 313 | 0.0 | 0.0 | 0.00 | 0.00 | 0.00 | 91 | 1018.7 |
| 20260502070030 | 1 | 313 | 0.0 | 0.0 | 0.00 | 0.00 | 0.00 | 91 | 1018.6 |
| 20260502064534 | 2 | 313 | 0.0 | 0.0 | 0.00 | 0.00 | 0.00 | 91 | 1018.5 |
| 20260502063034 | 2 | 313 | 0.0 | 0.0 | 0.00 | 0.00 | 0.00 | 91 | 1018.4 |
| 20260502061529 | 2 | 313 | 0.0 | 0.0 | 0.00 | 0.00 | 0.00 | 90 | 1018.3 |
| 20260502060029 | 3 | 313 | 0.0 | 0.0 | 0.00 | 0.00 | 0.00 | 90 | 1018.3 |
| 20260502054528 | 3 | 313 | 0.0 | 0.0 | 0.00 | 0.00 | 0.00 | 90 | 1018.2 |
| 20260502053027 | 3 | 313 | 0.0 | 0.0 | 0.00 | 0.00 | 0.00 | 89 | 1018.2 |
| 20260502051530 | 3 | 313 | 0.0 | 0.0 | 0.00 | 0.00 | 0.00 | 89 | 1018.2 |
| 20260502050034 | 4 | 313 | 0.0 | 0.0 | 0.00 | 0.00 | 0.00 | 88 | 1018.1 |
| 20260502044526 | 5 | 313 | 0.0 | 0.0 | 0.00 | 0.00 | 0.00 | 87 | 1018.2 |
| 20260502043026 | 5 | 313 | 0.0 | 0.0 | 0.00 | 0.00 | 0.00 | 87 | 1018.1 |
| 20260502041529 | 5 | 313 | 0.0 | 0.0 | 0.00 | 0.00 | 0.00 | 86 | 1018.0 |
| 20260502040025 | 6 | 313 | 0.0 | 0.0 | 0.00 | 0.00 | 0.00 | 85 | 1017.9 |
| 20260502034524 | 6 | 313 | 0.0 | 0.0 | 0.00 | 0.00 | 0.00 | 83 | 1017.8 |
| 20260502033026 | 7 | 313 | 0.0 | 0.0 | 0.00 | 0.00 | 0.00 | 82 | 1017.6 |
| 20260502031523 | 8 | 313 | 0.0 | 0.0 | 0.00 | 0.00 | 0.00 | 80 | 1017.3 |